Regional Weather Roundup
Issued by NWS

Home | Current Version | Previous Version | Graphics & Text | Print | Product List | Glossary On
Versions: 1 2 3 4 5 6 7 8 9 10 11 12 13 14 15 16 17 18 19 20 21 22 23 24 25 26 27 28
000
ASUS45 KSLC 181410
RWRUT

UTAH REGIONAL WEATHER ROUNDUP
NATIONAL WEATHER SERVICE SALT LAKE CITY UT
800 AM MDT FRI APR 18 2014

UTZ001>011-023>025-181500-

NORTHERN UTAH

CITY           SKY/WX    TMP DP  RH WIND       PRES   REMARKS
HILL AFB       PTSUNNY   60  26  27 S7        29.87R
LOGAN          CLOUDY    52  38  58 N10       29.84R
OGDEN          CLOUDY    62  26  25 S10       29.85R
PROVO AIRPORT  PTSUNNY   54  32  43 SE7       29.91R
SALT LAKE CITY CLOUDY    64  23  21 S17G26    29.82S
VERNAL         PTSUNNY   45  29  53 W3        30.00R
WENDOVER       CLOUDY    57  36  44 S5        29.87R
HEBER CITY     PTSUNNY   50  30  46 E5        29.93R
WEST JORDAN    SUNNY     61  32  33 SE16      29.87R

$$

UTZ012>022-026-027-181500-

SOUTHERN UTAH

CITY           SKY/WX    TMP DP  RH WIND       PRES   REMARKS
BRYCE CANYON   PTSUNNY   36  24  62 W6        30.11R WCI  31
CEDAR CITY     CLOUDY    50  20  30 N3        29.97R
MILFORD        CLOUDY    51  20  29 SW13      29.94R
MOAB/CYNLANDS  SUNNY     52  26  36 SE6       29.98R
PRICE          CLOUDY    50  22  33 SE3       30.01R
ST GEORGE      PTSUNNY   61  21  21 SW3       29.92R
KANAB            N/A     43  23  45 N5        30.04R

$$

REGIONAL REPORTS     COLORADO/ARIZONA

CITY           SKY/WX    TMP DP  RH WIND       PRES   REMARKS
CRAIG, CO      PTSUNNY   44  29  55 VRB5      30.05R
GRAND JUNCTION PTSUNNY   49  27  42 E13       30.02R
RIFLE          MOSUNNY   38  29  70 CALM      30.09R
MONTROSE       MOSUNNY   44  28  53 S6        30.11R
CORTEZ         SUNNY     40  27  59 CALM      30.12R
PAGE, AZ       PTSUNNY   59  24  26 W3        29.97R
GRAND CANYON   PTSUNNY   38  18  44 CALM      30.08R
KINGMAN        PTSUNNY   62  20  19 SE14      29.91R
FLAGSTAFF      CLOUDY    38  23  55 CALM      30.11R

$$

REGIONAL REPORTS    NEVADA/IDAHO/WYOMING

CITY           SKY/WX    TMP DP  RH WIND       PRES   REMARKS
LAS VEGAS, NV  CLOUDY    68  26  20 W6        29.78R
ELY            MOSUNNY   47  20  34 S14       29.96R
ELKO           CLOUDY    50  39  66 CALM      29.95R
POCATELLO, ID  LGT RAIN  44  41  89 SW20      29.93R
BURLEY         CLOUDY    45  40  82 W18G25    29.93R
EVANSTON, WY   PTSUNNY   50  23  34 SW10      29.94R
ROCK SPRINGS   PTSUNNY   55  23  28 S12G21    29.94S

$$



USA.gov is the U.S. government's official web portal to all federal, state and local government web resources and services.